Time,TemperatureF,DewpointF,PressureIn,WindDirection,WindDirectionDegrees,WindSpeedMPH,WindSpeedGustMPH,Humidity,HourlyPrecipIn,Conditions,Clouds,dailyrainin,SoftwareType,DateUTC
2013-02-27 00:02:00,31.7,7.8,30.27,West,263,2.0,3.0,36,0.00,,,0.00,WeatherTracker,2013-02-27 07:02:00,
2013-02-27 00:07:00,31.4,8.2,30.27,WSW,244,1.0,4.0,37,0.00,,,0.00,WeatherTracker,2013-02-27 07:07:00,
2013-02-27 00:12:00,31.3,8.1,30.27,WSW,239,5.0,5.0,37,0.00,,,0.00,WeatherTracker,2013-02-27 07:12:00,
2013-02-27 00:17:00,31.2,8.0,30.27,NW,314,0.0,5.0,37,0.00,,,0.00,WeatherTracker,2013-02-27 07:17:00,
2013-02-27 00:22:00,31.2,8.0,30.27,West,277,1.0,7.0,37,0.00,,,0.00,WeatherTracker,2013-02-27 07:22:00,
2013-02-27 00:27:00,31.2,8.0,30.28,SW,231,1.0,7.0,37,0.00,,,0.00,WeatherTracker,2013-02-27 07:27:00,
2013-02-27 00:32:00,31.2,8.0,30.28,WSW,248,2.0,7.0,37,0.00,,,0.00,WeatherTracker,2013-02-27 07:32:00,
2013-02-27 00:37:00,31.2,8.0,30.28,NW,313,3.0,6.0,37,0.00,,,0.00,WeatherTracker,2013-02-27 07:37:00,
2013-02-27 00:42:00,31.2,8.0,30.28,WNW,290,0.0,6.0,37,0.00,,,0.00,WeatherTracker,2013-02-27 07:42:00,
2013-02-27 00:47:00,31.0,7.8,30.29,NW,308,3.0,5.0,37,0.00,,,0.00,WeatherTracker,2013-02-27 07:47:00,
2013-02-27 00:52:00,30.8,8.2,30.29,NNE,26,0.0,6.0,38,0.00,,,0.00,WeatherTracker,2013-02-27 07:52:00,
2013-02-27 00:57:00,30.7,8.1,30.29,West,271,0.0,6.0,38,0.00,,,0.00,WeatherTracker,2013-02-27 07:57:00,
2013-02-27 01:02:00,30.6,8.0,30.29,West,278,0.0,4.0,38,0.00,,,0.00,WeatherTracker,2013-02-27 08:02:00,
2013-02-27 01:07:00,30.5,8.0,30.29,SW,223,0.0,4.0,38,0.00,,,0.00,WeatherTracker,2013-02-27 08:07:00,
2013-02-27 01:12:00,30.4,7.9,30.30,WSW,237,0.0,5.0,38,0.00,,,0.00,WeatherTracker,2013-02-27 08:12:00,
2013-02-27 01:18:00,30.5,8.0,30.30,NW,306,2.0,5.0,38,0.00,,,0.00,WeatherTracker,2013-02-27 08:18:00,
2013-02-27 01:23:00,30.4,7.9,30.30,WSW,240,0.0,5.0,38,0.00,,,0.00,WeatherTracker,2013-02-27 08:23:00,
2013-02-27 01:28:00,30.3,8.3,30.30,WNW,287,2.0,5.0,39,0.00,,,0.00,WeatherTracker,2013-02-27 08:28:00,
2013-02-27 01:33:00,30.2,8.3,30.30,WSW,254,0.0,5.0,39,0.00,,,0.00,WeatherTracker,2013-02-27 08:33:00,
2013-02-27 01:38:00,29.9,8.0,30.30,WSW,257,0.0,5.0,39,0.00,,,0.00,WeatherTracker,2013-02-27 08:38:00,
2013-02-27 01:43:00,29.7,8.4,30.30,WSW,258,0.0,2.0,40,0.00,,,0.00,WeatherTracker,2013-02-27 08:43:00,
2013-02-27 01:48:00,29.5,8.2,30.31,WSW,258,0.0,1.0,40,0.00,,,0.00,WeatherTracker,2013-02-27 08:48:00,
2013-02-27 01:53:00,29.2,8.5,30.31,WSW,258,0.0,0.0,41,0.00,,,0.00,WeatherTracker,2013-02-27 08:53:00,
2013-02-27 01:58:00,29.0,8.3,30.31,NNE,22,0.0,2.0,41,0.00,,,0.00,WeatherTracker,2013-02-27 08:58:00,
2013-02-27 02:03:00,29.0,8.8,30.31,West,263,0.0,4.0,42,0.00,,,0.00,WeatherTracker,2013-02-27 09:03:00,
2013-02-27 02:08:00,29.2,9.0,30.31,West,262,0.0,4.0,42,0.00,,,0.00,WeatherTracker,2013-02-27 09:08:00,
2013-02-27 02:13:00,29.2,9.0,30.30,West,262,0.0,3.0,42,0.00,,,0.00,WeatherTracker,2013-02-27 09:13:00,
2013-02-27 02:18:00,29.1,8.9,30.30,SW,236,0.0,1.0,42,0.00,,,0.00,WeatherTracker,2013-02-27 09:18:00,
2013-02-27 02:23:00,29.2,9.0,30.31,WSW,248,0.0,1.0,42,0.00,,,0.00,WeatherTracker,2013-02-27 09:23:00,
2013-02-27 02:28:00,29.1,8.9,30.31,WSW,248,0.0,1.0,42,0.00,,,0.00,WeatherTracker,2013-02-27 09:28:00,
2013-02-27 02:33:00,28.9,9.2,30.31,WSW,248,0.0,1.0,43,0.00,,,0.00,WeatherTracker,2013-02-27 09:33:00,
2013-02-27 02:38:00,28.8,9.2,30.31,West,270,1.0,1.0,43,0.00,,,0.00,WeatherTracker,2013-02-27 09:38:00,
2013-02-27 02:43:00,28.9,9.2,30.31,SW,226,0.0,3.0,43,0.00,,,0.00,WeatherTracker,2013-02-27 09:43:00,
2013-02-27 02:48:00,28.8,9.2,30.32,SW,236,0.0,3.0,43,0.00,,,0.00,WeatherTracker,2013-02-27 09:48:00,
2013-02-27 02:53:00,28.8,9.2,30.32,WSW,237,0.0,2.0,43,0.00,,,0.00,WeatherTracker,2013-02-27 09:53:00,
2013-02-27 02:58:00,28.8,9.2,30.31,WSW,238,0.0,2.0,43,0.00,,,0.00,WeatherTracker,2013-02-27 09:58:00,
2013-02-27 03:03:00,28.8,9.2,30.31,WNW,294,0.0,3.0,43,0.00,,,0.00,WeatherTracker,2013-02-27 10:03:00,
2013-02-27 03:08:00,28.7,9.1,30.32,SW,225,0.0,3.0,43,0.00,,,0.00,WeatherTracker,2013-02-27 10:08:00,
2013-02-27 03:13:00,28.5,9.4,30.32,WSW,248,0.0,2.0,44,0.00,,,0.00,WeatherTracker,2013-02-27 10:13:00,
2013-02-27 03:18:00,28.4,9.3,30.32,WSW,248,0.0,2.0,44,0.00,,,0.00,WeatherTracker,2013-02-27 10:18:00,
2013-02-27 03:23:00,28.1,9.5,30.32,WSW,248,0.0,1.0,45,0.00,,,0.00,WeatherTracker,2013-02-27 10:23:00,
2013-02-27 03:28:00,27.9,9.3,30.32,WSW,248,0.0,1.0,45,0.00,,,0.00,WeatherTracker,2013-02-27 10:28:00,
2013-02-27 03:33:00,27.8,9.3,30.33,WSW,248,0.0,0.0,45,0.00,,,0.00,WeatherTracker,2013-02-27 10:33:00,
2013-02-27 03:38:00,27.4,9.4,30.33,WSW,248,0.0,0.0,46,0.00,,,0.00,WeatherTracker,2013-02-27 10:38:00,
2013-02-27 03:43:00,27.0,9.5,30.33,WSW,248,0.0,0.0,47,0.00,,,0.00,WeatherTracker,2013-02-27 10:43:00,
2013-02-27 03:48:00,26.7,9.2,30.33,WSW,248,0.0,0.0,47,0.00,,,0.00,WeatherTracker,2013-02-27 10:48:00,
2013-02-27 03:54:00,26.9,9.9,30.34,WSW,248,0.0,0.0,48,0.00,,,0.00,WeatherTracker,2013-02-27 10:54:00,
2013-02-27 03:59:00,26.9,9.4,30.34,WSW,248,0.0,0.0,47,0.00,,,0.00,WeatherTracker,2013-02-27 10:59:00,
2013-02-27 04:04:00,27.1,10.0,30.34,WSW,248,0.0,0.0,48,0.00,,,0.00,WeatherTracker,2013-02-27 11:04:00,
2013-02-27 04:09:00,26.9,9.9,30.34,WSW,248,0.0,0.0,48,0.00,,,0.00,WeatherTracker,2013-02-27 11:09:00,
2013-02-27 04:14:00,26.6,10.0,30.34,WSW,248,0.0,1.0,49,0.00,,,0.00,WeatherTracker,2013-02-27 11:14:00,
2013-02-27 04:19:00,26.1,9.6,30.35,WSW,248,0.0,1.0,49,0.00,,,0.00,WeatherTracker,2013-02-27 11:19:00,
2013-02-27 04:24:00,25.9,9.8,30.35,WSW,248,0.0,0.0,50,0.00,,,0.00,WeatherTracker,2013-02-27 11:24:00,
2013-02-27 04:29:00,25.7,9.7,30.35,WSW,248,0.0,0.0,50,0.00,,,0.00,WeatherTracker,2013-02-27 11:29:00,
2013-02-27 04:34:00,25.7,9.7,30.36,WSW,248,0.0,0.0,50,0.00,,,0.00,WeatherTracker,2013-02-27 11:34:00,
2013-02-27 04:39:00,25.5,9.5,30.36,WSW,248,0.0,0.0,50,0.00,,,0.00,WeatherTracker,2013-02-27 11:39:00,
2013-02-27 04:44:00,25.6,9.6,30.36,WSW,248,0.0,0.0,50,0.00,,,0.00,WeatherTracker,2013-02-27 11:44:00,
2013-02-27 04:49:00,25.3,9.3,30.36,WSW,248,0.0,0.0,50,0.00,,,0.00,WeatherTracker,2013-02-27 11:49:00,
2013-02-27 04:54:00,25.4,9.4,30.36,WSW,248,0.0,0.0,50,0.00,,,0.00,WeatherTracker,2013-02-27 11:54:00,
2013-02-27 04:59:00,25.5,9.5,30.37,WSW,248,1.0,0.0,50,0.00,,,0.00,WeatherTracker,2013-02-27 11:59:00,
2013-02-27 05:04:00,25.7,10.1,30.37,WSW,248,0.0,1.0,51,0.00,,,0.00,WeatherTracker,2013-02-27 12:04:00,
2013-02-27 05:10:00,25.8,10.2,30.37,WSW,248,0.0,1.0,51,0.00,,,0.00,WeatherTracker,2013-02-27 12:10:00,
2013-02-27 05:15:00,25.2,10.1,30.37,WSW,248,0.0,0.0,52,0.00,,,0.00,WeatherTracker,2013-02-27 12:15:00,
2013-02-27 05:20:00,24.7,10.0,30.37,WSW,248,0.0,0.0,53,0.00,,,0.00,WeatherTracker,2013-02-27 12:20:00,
2013-02-27 05:25:00,24.6,10.4,30.37,WSW,248,0.0,0.0,54,0.00,,,0.00,WeatherTracker,2013-02-27 12:25:00,
2013-02-27 05:30:00,24.5,9.8,30.37,WSW,248,0.0,0.0,53,0.00,,,0.00,WeatherTracker,2013-02-27 12:30:00,
2013-02-27 05:35:00,24.3,10.5,30.37,WSW,248,0.0,0.0,55,0.00,,,0.00,WeatherTracker,2013-02-27 12:35:00,
2013-02-27 05:40:00,23.8,10.4,30.37,WSW,248,0.0,0.0,56,0.00,,,0.00,WeatherTracker,2013-02-27 12:40:00,
2013-02-27 05:45:00,23.6,10.2,30.37,WSW,248,0.0,0.0,56,0.00,,,0.00,WeatherTracker,2013-02-27 12:45:00,
2013-02-27 05:50:00,23.5,10.5,30.38,WSW,248,0.0,0.0,57,0.00,,,0.00,WeatherTracker,2013-02-27 12:50:00,
2013-02-27 05:55:00,23.5,10.5,30.38,WSW,248,0.0,0.0,57,0.00,,,0.00,WeatherTracker,2013-02-27 12:55:00,
2013-02-27 06:00:00,23.6,10.6,30.39,WSW,248,0.0,0.0,57,0.00,,,0.00,WeatherTracker,2013-02-27 13:00:00,
2013-02-27 06:05:00,23.7,10.7,30.39,WSW,248,0.0,0.0,57,0.00,,,0.00,WeatherTracker,2013-02-27 13:05:00,
2013-02-27 06:10:00,23.3,10.7,30.39,WSW,248,0.0,0.0,58,0.00,,,0.00,WeatherTracker,2013-02-27 13:10:00,
2013-02-27 06:15:00,23.1,10.5,30.39,WSW,248,0.0,0.0,58,0.00,,,0.00,WeatherTracker,2013-02-27 13:15:00,
2013-02-27 06:20:00,23.1,10.5,30.39,WSW,248,0.0,0.0,58,0.00,,,0.00,WeatherTracker,2013-02-27 13:20:00,
2013-02-27 06:25:00,23.6,10.6,30.39,WSW,248,0.0,0.0,57,0.00,,,0.00,WeatherTracker,2013-02-27 13:25:00,
2013-02-27 06:30:00,23.8,10.4,30.40,WSW,248,0.0,0.0,56,0.00,,,0.00,WeatherTracker,2013-02-27 13:30:00,
2013-02-27 06:35:00,23.6,10.6,30.40,West,264,1.0,0.0,57,0.00,,,0.00,WeatherTracker,2013-02-27 13:35:00,
2013-02-27 06:40:00,23.6,10.6,30.40,West,264,0.0,2.0,57,0.00,,,0.00,WeatherTracker,2013-02-27 13:40:00,
2013-02-27 06:45:00,23.5,10.5,30.41,West,264,0.0,2.0,57,0.00,,,0.00,WeatherTracker,2013-02-27 13:45:00,
2013-02-27 06:50:00,23.0,10.5,30.41,West,264,0.0,0.0,58,0.00,,,0.00,WeatherTracker,2013-02-27 13:50:00,
2013-02-27 06:55:00,22.8,10.6,30.41,West,264,0.0,0.0,59,0.00,,,0.00,WeatherTracker,2013-02-27 13:55:00,
2013-02-27 07:00:00,22.9,11.1,30.41,West,264,0.0,0.0,60,0.00,,,0.00,WeatherTracker,2013-02-27 14:00:00,
2013-02-27 07:05:00,23.5,10.9,30.41,West,271,2.0,2.0,58,0.00,,,0.00,WeatherTracker,2013-02-27 14:05:00,
2013-02-27 07:10:00,24.0,11.4,30.41,West,278,0.0,2.0,58,0.00,,,0.00,WeatherTracker,2013-02-27 14:10:00,
2013-02-27 07:15:00,24.5,11.5,30.41,West,278,0.0,2.0,57,0.00,,,0.00,WeatherTracker,2013-02-27 14:15:00,
2013-02-27 07:20:00,25.1,11.6,30.42,West,278,0.0,1.0,56,0.00,,,0.00,WeatherTracker,2013-02-27 14:20:00,
2013-02-27 07:25:00,26.1,12.2,30.43,West,278,0.0,1.0,55,0.00,,,0.00,WeatherTracker,2013-02-27 14:25:00,
2013-02-27 07:30:00,26.9,12.1,30.43,West,278,0.0,1.0,53,0.00,,,0.00,WeatherTracker,2013-02-27 14:30:00,
2013-02-27 07:36:00,27.5,12.2,30.43,West,278,0.0,0.0,52,0.00,,,0.00,WeatherTracker,2013-02-27 14:36:00,
2013-02-27 07:41:00,27.9,11.7,30.43,West,278,0.0,0.0,50,0.00,,,0.00,WeatherTracker,2013-02-27 14:41:00,
2013-02-27 07:46:00,28.5,11.3,30.44,West,278,0.0,1.0,48,0.00,,,0.00,WeatherTracker,2013-02-27 14:46:00,
2013-02-27 07:51:00,29.2,11.5,30.44,West,266,1.0,3.0,47,0.00,,,0.00,WeatherTracker,2013-02-27 14:51:00,
2013-02-27 07:56:00,29.6,10.9,30.45,West,269,1.0,3.0,45,0.00,,,0.00,WeatherTracker,2013-02-27 14:56:00,
2013-02-27 08:01:00,30.0,10.8,30.45,West,265,0.0,1.0,44,0.00,,,0.00,WeatherTracker,2013-02-27 15:01:00,
2013-02-27 08:06:00,30.3,10.5,30.45,NNW,344,0.0,4.0,43,0.00,,,0.00,WeatherTracker,2013-02-27 15:06:00,
2013-02-27 08:11:00,30.4,10.1,30.46,NNW,329,1.0,4.0,42,0.00,,,0.00,WeatherTracker,2013-02-27 15:11:00,
2013-02-27 08:16:00,30.6,10.3,30.46,NNW,329,1.0,2.0,42,0.00,,,0.00,WeatherTracker,2013-02-27 15:16:00,
2013-02-27 08:21:00,30.7,10.4,30.46,NW,309,1.0,2.0,42,0.00,,,0.00,WeatherTracker,2013-02-27 15:21:00,
2013-02-27 08:26:00,31.1,10.2,30.46,West,267,1.0,2.0,41,0.00,,,0.00,WeatherTracker,2013-02-27 15:26:00,
2013-02-27 08:31:00,31.7,10.7,30.46,NNW,330,0.0,2.0,41,0.00,,,0.00,WeatherTracker,2013-02-27 15:31:00,
2013-02-27 08:36:00,31.6,10.1,30.47,SSE,167,0.0,3.0,40,0.00,,,0.00,WeatherTracker,2013-02-27 15:36:00,
2013-02-27 08:41:00,31.9,10.9,30.47,SW,232,0.0,3.0,41,0.00,,,0.00,WeatherTracker,2013-02-27 15:41:00,
2013-02-27 08:46:00,32.0,10.4,30.47,NW,318,3.0,3.0,40,0.00,,,0.00,WeatherTracker,2013-02-27 15:46:00,
2013-02-27 08:51:00,32.3,10.1,30.47,NNW,336,3.0,4.0,39,0.00,,,0.00,WeatherTracker,2013-02-27 15:51:00,
2013-02-27 08:56:00,32.0,10.4,30.47,NNW,335,1.0,4.0,40,0.00,,,0.00,WeatherTracker,2013-02-27 15:56:00,
2013-02-27 09:02:00,32.9,10.7,30.46,NNW,335,0.0,4.0,39,0.00,,,0.00,WeatherTracker,2013-02-27 16:02:00,
2013-02-27 09:07:00,33.5,10.6,30.47,NNE,30,1.0,4.0,38,0.00,,,0.00,WeatherTracker,2013-02-27 16:07:00,
2013-02-27 09:12:00,34.6,10.4,30.47,West,281,0.0,3.0,36,0.00,,,0.00,WeatherTracker,2013-02-27 16:12:00,
2013-02-27 09:17:00,34.7,10.5,30.46,NW,317,1.0,3.0,36,0.00,,,0.00,WeatherTracker,2013-02-27 16:17:00,
2013-02-27 09:22:00,34.4,10.9,30.47,SE,130,1.0,3.0,37,0.00,,,0.00,WeatherTracker,2013-02-27 16:22:00,
2013-02-27 09:27:00,35.0,10.8,30.47,ESE,120,1.0,3.0,36,0.00,,,0.00,WeatherTracker,2013-02-27 16:27:00,
2013-02-27 09:32:00,35.0,10.8,30.47,NW,321,2.0,3.0,36,0.00,,,0.00,WeatherTracker,2013-02-27 16:32:00,
2013-02-27 09:37:00,35.7,10.8,30.47,SSE,150,0.0,4.0,35,0.00,,,0.00,WeatherTracker,2013-02-27 16:37:00,
2013-02-27 09:42:00,35.6,11.3,30.47,SW,220,0.0,4.0,36,0.00,,,0.00,WeatherTracker,2013-02-27 16:42:00,
2013-02-27 09:47:00,35.9,10.3,30.47,South,182,1.0,4.0,34,0.00,,,0.00,WeatherTracker,2013-02-27 16:47:00,
2013-02-27 09:52:00,37.0,11.3,30.47,NW,324,1.0,4.0,34,0.00,,,0.00,WeatherTracker,2013-02-27 16:52:00,
2013-02-27 09:57:00,36.2,10.6,30.46,West,268,1.0,3.0,34,0.00,,,0.00,WeatherTracker,2013-02-27 16:57:00,
2013-02-27 10:02:00,37.1,11.4,30.46,WSW,242,3.0,3.0,34,0.00,,,0.00,WeatherTracker,2013-02-27 17:02:00,
2013-02-27 10:07:00,37.5,11.0,30.46,SW,223,1.0,6.0,33,0.00,,,0.00,WeatherTracker,2013-02-27 17:07:00,
2013-02-27 10:12:00,37.1,11.4,30.46,South,169,0.0,6.0,34,0.00,,,0.00,WeatherTracker,2013-02-27 17:12:00,
2013-02-27 10:17:00,37.8,12.0,30.46,SSE,159,0.0,5.0,34,0.00,,,0.00,WeatherTracker,2013-02-27 17:17:00,
2013-02-27 10:22:00,39.0,12.4,30.46,WSW,248,1.0,5.0,33,0.00,,,0.00,WeatherTracker,2013-02-27 17:22:00,
2013-02-27 10:27:00,38.4,11.1,30.46,NNW,333,1.0,3.0,32,0.00,,,0.00,WeatherTracker,2013-02-27 17:27:00,
2013-02-27 10:32:00,37.5,11.0,30.46,ESE,122,5.0,5.0,33,0.00,,,0.00,WeatherTracker,2013-02-27 17:32:00,
2013-02-27 10:37:00,39.1,11.8,30.45,WNW,288,1.0,5.0,32,0.00,,,0.00,WeatherTracker,2013-02-27 17:37:00,
2013-02-27 10:43:00,38.3,11.1,30.45,South,182,1.0,5.0,32,0.00,,,0.00,WeatherTracker,2013-02-27 17:43:00,
2013-02-27 10:48:00,38.8,12.2,30.45,SSW,208,2.0,3.0,33,0.00,,,0.00,WeatherTracker,2013-02-27 17:48:00,
2013-02-27 10:53:00,38.9,11.6,30.45,NNE,16,1.0,3.0,32,0.00,,,0.00,WeatherTracker,2013-02-27 17:53:00,
2013-02-27 10:58:00,39.0,11.7,30.45,SSE,157,0.0,3.0,32,0.00,,,0.00,WeatherTracker,2013-02-27 17:58:00,
2013-02-27 11:03:00,39.3,11.9,30.45,WNW,296,1.0,3.0,32,0.00,,,0.00,WeatherTracker,2013-02-27 18:03:00,
2013-02-27 11:08:00,40.6,12.4,30.45,NW,311,2.0,3.0,31,0.00,,,0.00,WeatherTracker,2013-02-27 18:08:00,
2013-02-27 11:13:00,40.6,10.9,30.45,ESE,109,3.0,5.0,29,0.00,,,0.00,WeatherTracker,2013-02-27 18:13:00,
2013-02-27 11:18:00,39.3,11.2,30.45,ESE,111,2.0,5.0,31,0.00,,,0.00,WeatherTracker,2013-02-27 18:18:00,
2013-02-27 11:23:00,39.3,11.2,30.45,NNW,331,2.0,5.0,31,0.00,,,0.00,WeatherTracker,2013-02-27 18:23:00,
2013-02-27 11:28:00,41.2,12.1,30.46,ENE,69,1.0,5.0,30,0.00,,,0.00,WeatherTracker,2013-02-27 18:28:00,
2013-02-27 11:33:00,41.3,11.5,30.46,ESE,105,0.0,4.0,29,0.00,,,0.00,WeatherTracker,2013-02-27 18:33:00,
2013-02-27 11:38:00,41.9,11.2,30.46,SE,132,2.0,7.0,28,0.00,,,0.00,WeatherTracker,2013-02-27 18:38:00,
2013-02-27 11:43:00,41.7,11.0,30.46,NNW,331,2.0,7.0,28,0.00,,,0.00,WeatherTracker,2013-02-27 18:43:00,
2013-02-27 11:48:00,41.5,11.6,30.46,NW,321,5.0,6.0,29,0.00,,,0.00,WeatherTracker,2013-02-27 18:48:00,
2013-02-27 11:53:00,42.1,11.4,30.45,NNW,346,0.0,6.0,28,0.00,,,0.00,WeatherTracker,2013-02-27 18:53:00,
2013-02-27 11:58:00,43.0,11.3,30.45,SSW,196,0.0,6.0,27,0.00,,,0.00,WeatherTracker,2013-02-27 18:58:00,
2013-02-27 12:03:00,42.7,11.1,30.45,SSE,153,2.0,5.0,27,0.00,,,0.00,WeatherTracker,2013-02-27 19:03:00,
2013-02-27 12:08:00,43.1,11.4,30.45,SW,216,2.0,5.0,27,0.00,,,0.00,WeatherTracker,2013-02-27 19:08:00,
2013-02-27 12:14:00,42.6,11.0,30.45,North,5,2.0,5.0,27,0.00,,,0.00,WeatherTracker,2013-02-27 19:14:00,
2013-02-27 12:19:00,41.4,10.0,30.44,SSE,165,0.0,5.0,27,0.00,,,0.00,WeatherTracker,2013-02-27 19:19:00,
2013-02-27 12:24:00,42.9,12.1,30.44,NNW,335,2.0,5.0,28,0.00,,,0.00,WeatherTracker,2013-02-27 19:24:00,
2013-02-27 12:29:00,43.7,11.9,30.43,NW,325,2.0,5.0,27,0.00,,,0.00,WeatherTracker,2013-02-27 19:29:00,
2013-02-27 12:34:00,42.4,10.0,30.43,NW,323,0.0,6.0,26,0.00,,,0.00,WeatherTracker,2013-02-27 19:34:00,
2013-02-27 12:39:00,44.1,11.4,30.43,North,5,1.0,6.0,26,0.00,,,0.00,WeatherTracker,2013-02-27 19:39:00,
2013-02-27 12:44:00,44.1,10.6,30.43,East,88,3.0,6.0,25,0.00,,,0.00,WeatherTracker,2013-02-27 19:44:00,
2013-02-27 12:49:00,44.2,11.5,30.42,NE,40,2.0,6.0,26,0.00,,,0.00,WeatherTracker,2013-02-27 19:49:00,
2013-02-27 12:54:00,43.6,10.1,30.42,ENE,62,2.0,6.0,25,0.00,,,0.00,WeatherTracker,2013-02-27 19:54:00,
2013-02-27 12:59:00,44.7,11.1,30.42,South,188,1.0,5.0,25,0.00,,,0.00,WeatherTracker,2013-02-27 19:59:00,
2013-02-27 13:04:00,44.6,10.1,30.42,SE,143,3.0,5.0,24,0.00,,,0.00,WeatherTracker,2013-02-27 20:04:00,
2013-02-27 13:09:00,45.2,10.6,30.42,ENE,76,3.0,6.0,24,0.00,,,0.00,WeatherTracker,2013-02-27 20:09:00,
2013-02-27 13:14:00,45.0,10.4,30.41,SSE,148,5.0,6.0,24,0.00,,,0.00,WeatherTracker,2013-02-27 20:14:00,
2013-02-27 13:19:00,43.7,9.3,30.41,SSE,159,2.0,9.0,24,0.00,,,0.00,WeatherTracker,2013-02-27 20:19:00,
2013-02-27 13:24:00,44.5,10.0,30.41,East,101,5.0,10.0,24,0.00,,,0.00,WeatherTracker,2013-02-27 20:24:00,
2013-02-27 13:29:00,44.6,10.1,30.41,ENE,67,3.0,10.0,24,0.00,,,0.00,WeatherTracker,2013-02-27 20:29:00,
2013-02-27 13:34:00,44.5,9.0,30.41,North,360,0.0,10.0,23,0.00,,,0.00,WeatherTracker,2013-02-27 20:34:00,
2013-02-27 13:39:00,45.1,8.6,30.41,NNE,32,2.0,6.0,22,0.00,,,0.00,WeatherTracker,2013-02-27 20:39:00,
2013-02-27 13:44:00,46.2,9.5,30.40,ESE,121,2.0,6.0,22,0.00,,,0.00,WeatherTracker,2013-02-27 20:44:00,
2013-02-27 13:49:00,45.6,9.0,30.40,SE,126,5.0,5.0,22,0.00,,,0.00,WeatherTracker,2013-02-27 20:49:00,
2013-02-27 13:54:00,46.2,8.4,30.40,SW,214,1.0,7.0,21,0.00,,,0.00,WeatherTracker,2013-02-27 20:54:00,
2013-02-27 14:00:00,45.2,7.6,30.40,NNW,335,1.0,7.0,21,0.00,,,0.00,WeatherTracker,2013-02-27 21:00:00,
2013-02-27 14:05:00,45.7,8.0,30.40,NNW,340,4.0,4.0,21,0.00,,,0.00,WeatherTracker,2013-02-27 21:05:00,
2013-02-27 14:10:00,44.8,7.3,30.39,East,82,1.0,5.0,21,0.00,,,0.00,WeatherTracker,2013-02-27 21:10:00,
2013-02-27 14:15:00,46.2,8.4,30.39,East,89,6.0,6.0,21,0.00,,,0.00,WeatherTracker,2013-02-27 21:15:00,
2013-02-27 14:20:00,44.9,7.4,30.39,ESE,115,1.0,9.0,21,0.00,,,0.00,WeatherTracker,2013-02-27 21:20:00,
2013-02-27 14:25:00,45.3,7.7,30.39,SE,124,3.0,9.0,21,0.00,,,0.00,WeatherTracker,2013-02-27 21:25:00,
2013-02-27 14:30:00,45.9,8.2,30.39,North,10,1.0,7.0,21,0.00,,,0.00,WeatherTracker,2013-02-27 21:30:00,
2013-02-27 14:35:00,45.2,6.5,30.39,SE,135,2.0,9.0,20,0.00,,,0.00,WeatherTracker,2013-02-27 21:35:00,
2013-02-27 14:40:00,45.9,7.1,30.39,NNW,348,1.0,9.0,20,0.00,,,0.00,WeatherTracker,2013-02-27 21:40:00,
2013-02-27 14:45:00,46.1,6.2,30.39,NNW,342,3.0,6.0,19,0.00,,,0.00,WeatherTracker,2013-02-27 21:45:00,
2013-02-27 14:50:00,46.8,6.7,30.39,East,90,3.0,7.0,19,0.00,,,0.00,WeatherTracker,2013-02-27 21:50:00,
2013-02-27 14:55:00,45.5,7.9,30.39,NNE,32,2.0,7.0,21,0.00,,,0.00,WeatherTracker,2013-02-27 21:55:00,
2013-02-27 15:00:00,45.6,6.9,30.39,South,172,1.0,7.0,20,0.00,,,0.00,WeatherTracker,2013-02-27 22:00:00,
2013-02-27 15:05:00,46.6,5.4,30.39,SSE,159,3.0,7.0,18,0.00,,,0.00,WeatherTracker,2013-02-27 22:05:00,
2013-02-27 15:10:00,46.8,5.6,30.39,SE,128,2.0,8.0,18,0.00,,,0.00,WeatherTracker,2013-02-27 22:10:00,
2013-02-27 15:15:00,45.9,6.0,30.39,NNW,336,4.0,8.0,19,0.00,,,0.00,WeatherTracker,2013-02-27 22:15:00,
2013-02-27 15:20:00,46.1,6.2,30.38,NW,314,2.0,8.0,19,0.00,,,0.00,WeatherTracker,2013-02-27 22:20:00,
2013-02-27 15:25:00,46.1,5.0,30.38,SE,146,4.0,8.0,18,0.00,,,0.00,WeatherTracker,2013-02-27 22:25:00,
2013-02-27 15:30:00,46.1,6.2,30.38,NNW,329,5.0,8.0,19,0.00,,,0.00,WeatherTracker,2013-02-27 22:30:00,
2013-02-27 15:35:00,46.4,6.4,30.38,ESE,111,4.0,8.0,19,0.00,,,0.00,WeatherTracker,2013-02-27 22:35:00,
2013-02-27 15:41:00,46.1,5.0,30.38,ESE,116,4.0,8.0,18,0.00,,,0.00,WeatherTracker,2013-02-27 22:41:00,
2013-02-27 15:46:00,46.4,5.2,30.38,SSE,152,3.0,8.0,18,0.00,,,0.00,WeatherTracker,2013-02-27 22:46:00,
2013-02-27 15:51:00,46.0,4.9,30.38,SE,129,1.0,6.0,18,0.00,,,0.00,WeatherTracker,2013-02-27 22:51:00,
2013-02-27 15:56:00,47.0,5.7,30.37,WSW,253,0.0,7.0,18,0.00,,,0.00,WeatherTracker,2013-02-27 22:56:00,
2013-02-27 16:01:00,46.3,5.2,30.37,North,351,0.0,4.0,18,0.00,,,0.00,WeatherTracker,2013-02-27 23:01:00,
2013-02-27 16:06:00,47.3,6.0,30.37,ENE,58,3.0,4.0,18,0.00,,,0.00,WeatherTracker,2013-02-27 23:06:00,
2013-02-27 16:11:00,46.5,5.3,30.37,SSE,154,4.0,5.0,18,0.00,,,0.00,WeatherTracker,2013-02-27 23:11:00,
2013-02-27 16:16:00,45.8,5.9,30.37,ESE,107,0.0,7.0,19,0.00,,,0.00,WeatherTracker,2013-02-27 23:16:00,
2013-02-27 16:21:00,46.2,5.1,30.37,ESE,119,2.0,7.0,18,0.00,,,0.00,WeatherTracker,2013-02-27 23:21:00,
2013-02-27 16:26:00,46.2,5.1,30.37,ESE,120,5.0,7.0,18,0.00,,,0.00,WeatherTracker,2013-02-27 23:26:00,
2013-02-27 16:31:00,45.6,4.6,30.37,East,94,2.0,6.0,18,0.00,,,0.00,WeatherTracker,2013-02-27 23:31:00,
2013-02-27 16:36:00,45.5,5.7,30.37,NE,41,1.0,6.0,19,0.00,,,0.00,WeatherTracker,2013-02-27 23:36:00,
2013-02-27 16:41:00,45.5,4.5,30.37,NNE,30,1.0,5.0,18,0.00,,,0.00,WeatherTracker,2013-02-27 23:41:00,
2013-02-27 16:46:00,45.2,4.2,30.37,NNE,18,0.0,3.0,18,0.00,,,0.00,WeatherTracker,2013-02-27 23:46:00,
2013-02-27 16:51:00,45.1,4.2,30.37,NE,53,0.0,3.0,18,0.00,,,0.00,WeatherTracker,2013-02-27 23:51:00,
2013-02-27 16:56:00,45.7,4.7,30.37,ESE,119,3.0,7.0,18,0.00,,,0.00,WeatherTracker,2013-02-27 23:56:00,
2013-02-27 17:01:00,45.3,4.3,30.37,East,89,0.0,7.0,18,0.00,,,0.00,WeatherTracker,2013-02-28 00:01:00,
2013-02-27 17:06:00,45.0,5.3,30.37,East,89,0.0,5.0,19,0.00,,,0.00,WeatherTracker,2013-02-28 00:06:00,
2013-02-27 17:11:00,45.3,5.5,30.37,East,89,0.0,2.0,19,0.00,,,0.00,WeatherTracker,2013-02-28 00:11:00,
2013-02-27 17:16:00,45.0,4.1,30.37,East,89,0.0,2.0,18,0.00,,,0.00,WeatherTracker,2013-02-28 00:16:00,
2013-02-27 17:22:00,45.0,5.3,30.37,East,88,2.0,5.0,19,0.00,,,0.00,WeatherTracker,2013-02-28 00:22:00,
2013-02-27 17:27:00,44.7,5.0,30.37,NNE,28,2.0,5.0,19,0.00,,,0.00,WeatherTracker,2013-02-28 00:27:00,
2013-02-27 17:32:00,44.8,5.1,30.37,SE,141,0.0,3.0,19,0.00,,,0.00,WeatherTracker,2013-02-28 00:32:00,
2013-02-27 17:37:00,44.6,4.9,30.37,ENE,76,2.0,3.0,19,0.00,,,0.00,WeatherTracker,2013-02-28 00:37:00,
2013-02-27 17:42:00,44.3,4.7,30.37,NNE,12,2.0,3.0,19,0.00,,,0.00,WeatherTracker,2013-02-28 00:42:00,
2013-02-27 17:47:00,44.4,4.8,30.37,ENE,57,0.0,3.0,19,0.00,,,0.00,WeatherTracker,2013-02-28 00:47:00,
2013-02-27 17:52:00,44.1,4.5,30.37,ENE,58,0.0,3.0,19,0.00,,,0.00,WeatherTracker,2013-02-28 00:52:00,
2013-02-27 17:57:00,44.0,4.4,30.37,NNE,22,1.0,3.0,19,0.00,,,0.00,WeatherTracker,2013-02-28 00:57:00,
2013-02-27 18:02:00,43.8,4.3,30.37,NNE,15,0.0,3.0,19,0.00,,,0.00,WeatherTracker,2013-02-28 01:02:00,
2013-02-27 18:07:00,43.7,4.2,30.37,NNE,16,0.0,3.0,19,0.00,,,0.00,WeatherTracker,2013-02-28 01:07:00,
2013-02-27 18:12:00,43.5,4.0,30.37,NNE,16,1.0,2.0,19,0.00,,,0.00,WeatherTracker,2013-02-28 01:12:00,
2013-02-27 18:17:00,43.4,3.9,30.37,NNE,16,0.0,2.0,19,0.00,,,0.00,WeatherTracker,2013-02-28 01:17:00,
2013-02-27 18:22:00,43.4,5.0,30.37,NNE,16,1.0,3.0,20,0.00,,,0.00,WeatherTracker,2013-02-28 01:22:00,
2013-02-27 18:27:00,43.4,5.0,30.37,NNE,16,1.0,3.0,20,0.00,,,0.00,WeatherTracker,2013-02-28 01:27:00,
2013-02-27 18:32:00,43.1,4.8,30.38,NNE,16,2.0,3.0,20,0.00,,,0.00,WeatherTracker,2013-02-28 01:32:00,
2013-02-27 18:37:00,42.7,4.5,30.38,North,10,1.0,4.0,20,0.00,,,0.00,WeatherTracker,2013-02-28 01:37:00,
2013-02-27 18:43:00,42.5,5.4,30.38,North,10,0.0,4.0,21,0.00,,,0.00,WeatherTracker,2013-02-28 01:43:00,
2013-02-27 18:48:00,42.4,5.3,30.38,North,11,0.0,4.0,21,0.00,,,0.00,WeatherTracker,2013-02-28 01:48:00,
2013-02-27 18:53:00,42.1,5.0,30.38,North,11,0.0,2.0,21,0.00,,,0.00,WeatherTracker,2013-02-28 01:53:00,
2013-02-27 18:58:00,42.0,4.9,30.38,North,11,0.0,3.0,21,0.00,,,0.00,WeatherTracker,2013-02-28 01:58:00,
2013-02-27 19:03:00,41.9,4.8,30.39,North,11,0.0,3.0,21,0.00,,,0.00,WeatherTracker,2013-02-28 02:03:00,
2013-02-27 19:08:00,41.7,5.7,30.39,North,11,1.0,3.0,22,0.00,,,0.00,WeatherTracker,2013-02-28 02:08:00,
2013-02-27 19:13:00,41.6,4.6,30.39,North,11,0.0,3.0,21,0.00,,,0.00,WeatherTracker,2013-02-28 02:13:00,
2013-02-27 19:18:00,41.5,5.5,30.40,North,11,3.0,3.0,22,0.00,,,0.00,WeatherTracker,2013-02-28 02:18:00,
2013-02-27 19:23:00,41.3,5.4,30.40,North,11,1.0,3.0,22,0.00,,,0.00,WeatherTracker,2013-02-28 02:23:00,
2013-02-27 19:28:00,41.1,5.2,30.40,North,11,0.0,3.0,22,0.00,,,0.00,WeatherTracker,2013-02-28 02:28:00,
2013-02-27 19:33:00,41.0,5.1,30.40,North,11,1.0,2.0,22,0.00,,,0.00,WeatherTracker,2013-02-28 02:33:00,
2013-02-27 19:38:00,40.7,4.9,30.40,North,11,0.0,3.0,22,0.00,,,0.00,WeatherTracker,2013-02-28 02:38:00,
2013-02-27 19:43:00,40.6,4.8,30.40,North,11,0.0,3.0,22,0.00,,,0.00,WeatherTracker,2013-02-28 02:43:00,
2013-02-27 19:48:00,40.0,5.2,30.40,North,11,0.0,2.0,23,0.00,,,0.00,WeatherTracker,2013-02-28 02:48:00,
2013-02-27 19:53:00,39.2,5.5,30.41,North,11,0.0,2.0,24,0.00,,,0.00,WeatherTracker,2013-02-28 02:53:00,
2013-02-27 19:58:00,38.5,5.8,30.41,North,5,0.0,3.0,25,0.00,,,0.00,WeatherTracker,2013-02-28 02:58:00,
2013-02-27 20:03:00,38.5,5.8,30.41,North,5,0.0,3.0,25,0.00,,,0.00,WeatherTracker,2013-02-28 03:03:00,
2013-02-27 20:08:00,38.8,5.1,30.41,North,5,0.0,1.0,24,0.00,,,0.00,WeatherTracker,2013-02-28 03:08:00,
2013-02-27 20:14:00,38.9,5.2,30.41,North,5,0.0,1.0,24,0.00,,,0.00,WeatherTracker,2013-02-28 03:14:00,
2013-02-27 20:19:00,38.6,5.9,30.41,North,5,0.0,1.0,25,0.00,,,0.00,WeatherTracker,2013-02-28 03:19:00,
2013-02-27 20:24:00,38.6,5.9,30.41,North,5,0.0,0.0,25,0.00,,,0.00,WeatherTracker,2013-02-28 03:24:00,
2013-02-27 20:29:00,37.5,4.9,30.41,North,5,0.0,0.0,25,0.00,,,0.00,WeatherTracker,2013-02-28 03:29:00,
2013-02-27 20:35:00,37.1,5.4,30.42,North,5,0.0,0.0,26,0.00,,,0.00,WeatherTracker,2013-02-28 03:35:00,
2013-02-27 20:40:00,37.3,5.6,30.42,North,5,0.0,0.0,26,0.00,,,0.00,WeatherTracker,2013-02-28 03:40:00,
2013-02-27 20:45:00,37.0,6.2,30.43,North,5,0.0,0.0,27,0.00,,,0.00,WeatherTracker,2013-02-28 03:45:00,
2013-02-27 20:50:00,36.4,5.6,30.43,North,5,0.0,1.0,27,0.00,,,0.00,WeatherTracker,2013-02-28 03:50:00,
2013-02-27 20:55:00,36.7,5.1,30.43,North,5,0.0,1.0,26,0.00,,,0.00,WeatherTracker,2013-02-28 03:55:00,
2013-02-27 21:01:00,36.7,5.1,30.43,North,5,0.0,0.0,26,0.00,,,0.00,WeatherTracker,2013-02-28 04:01:00,
2013-02-27 21:06:00,36.3,4.7,30.43,North,5,0.0,0.0,26,0.00,,,0.00,WeatherTracker,2013-02-28 04:06:00,
2013-02-27 21:11:00,36.1,4.6,30.43,West,259,0.0,2.0,26,0.00,,,0.00,WeatherTracker,2013-02-28 04:11:00,
2013-02-27 21:16:00,36.8,3.4,30.43,West,264,0.0,2.0,24,0.00,,,0.00,WeatherTracker,2013-02-28 04:16:00,
2013-02-27 21:21:00,36.8,3.4,30.44,West,264,0.0,2.0,24,0.00,,,0.00,WeatherTracker,2013-02-28 04:21:00,
2013-02-27 21:26:00,36.7,3.3,30.44,West,264,0.0,2.0,24,0.00,,,0.00,WeatherTracker,2013-02-28 04:26:00,
2013-02-27 21:31:00,36.5,3.2,30.44,West,264,0.0,1.0,24,0.00,,,0.00,WeatherTracker,2013-02-28 04:31:00,
2013-02-27 21:36:00,36.3,3.0,30.44,West,262,0.0,2.0,24,0.00,,,0.00,WeatherTracker,2013-02-28 04:36:00,
2013-02-27 21:41:00,36.1,3.7,30.44,West,262,0.0,2.0,25,0.00,,,0.00,WeatherTracker,2013-02-28 04:41:00,
2013-02-27 21:47:00,35.4,3.1,30.44,West,262,0.0,1.0,25,0.00,,,0.00,WeatherTracker,2013-02-28 04:47:00,
2013-02-27 21:52:00,35.3,3.0,30.45,West,262,0.0,1.0,25,0.00,,,0.00,WeatherTracker,2013-02-28 04:52:00,
2013-02-27 21:57:00,35.2,2.9,30.44,West,262,0.0,1.0,25,0.00,,,0.00,WeatherTracker,2013-02-28 04:57:00,
2013-02-27 22:00:00,35.2,2.9,30.45,West,262,0.0,0.0,25,0.00,,,0.00,WeatherTracker,2013-02-28 05:00:00,
2013-02-27 22:01:00,35.2,2.9,30.45,West,262,0.0,0.0,25,0.00,,,0.00,WeatherTracker,2013-02-28 05:01:00,
2013-02-27 22:06:00,34.7,3.4,30.45,West,262,0.0,0.0,26,0.00,,,0.00,WeatherTracker,2013-02-28 05:06:00,
2013-02-27 22:11:00,34.3,3.0,30.45,West,262,0.0,0.0,26,0.00,,,0.00,WeatherTracker,2013-02-28 05:11:00,
2013-02-27 22:17:00,34.3,3.0,30.45,West,262,0.0,2.0,26,0.00,,,0.00,WeatherTracker,2013-02-28 05:17:00,
2013-02-27 22:22:00,34.8,2.6,30.45,WSW,258,0.0,5.0,25,0.00,,,0.00,WeatherTracker,2013-02-28 05:22:00,
2013-02-27 22:27:00,34.8,2.6,30.45,WSW,258,0.0,5.0,25,0.00,,,0.00,WeatherTracker,2013-02-28 05:27:00,
2013-02-27 22:32:00,34.8,2.6,30.45,WSW,258,0.0,1.0,25,0.00,,,0.00,WeatherTracker,2013-02-28 05:32:00,
2013-02-27 22:37:00,34.4,3.1,30.45,WSW,258,0.0,1.0,26,0.00,,,0.00,WeatherTracker,2013-02-28 05:37:00,
2013-02-27 22:42:00,34.3,3.0,30.45,WSW,258,0.0,1.0,26,0.00,,,0.00,WeatherTracker,2013-02-28 05:42:00,
2013-02-27 22:48:00,34.2,3.7,30.45,WSW,258,0.0,1.0,27,0.00,,,0.00,WeatherTracker,2013-02-28 05:48:00,
2013-02-27 22:53:00,34.3,3.8,30.45,WSW,258,0.0,1.0,27,0.00,,,0.00,WeatherTracker,2013-02-28 05:53:00,
2013-02-27 22:58:00,34.3,3.0,30.45,WSW,258,0.0,1.0,26,0.00,,,0.00,WeatherTracker,2013-02-28 05:58:00,
2013-02-27 23:03:00,34.3,3.8,30.45,WSW,258,0.0,1.0,27,0.00,,,0.00,WeatherTracker,2013-02-28 06:03:00,
2013-02-27 23:08:00,33.9,3.5,30.45,WSW,258,1.0,0.0,27,0.00,,,0.00,WeatherTracker,2013-02-28 06:08:00,
2013-02-27 23:13:00,33.6,4.0,30.45,WSW,258,0.0,1.0,28,0.00,,,0.00,WeatherTracker,2013-02-28 06:13:00,
2013-02-27 23:18:00,33.3,3.8,30.45,WSW,258,0.0,1.0,28,0.00,,,0.00,WeatherTracker,2013-02-28 06:18:00,
2013-02-27 23:23:00,33.3,3.8,30.45,WSW,258,0.0,0.0,28,0.00,,,0.00,WeatherTracker,2013-02-28 06:23:00,
2013-02-27 23:29:00,33.0,4.3,30.45,WSW,247,0.0,4.0,29,0.00,,,0.00,WeatherTracker,2013-02-28 06:29:00,
2013-02-27 23:34:00,33.4,3.8,30.45,WSW,247,0.0,4.0,28,0.00,,,0.00,WeatherTracker,2013-02-28 06:34:00,
2013-02-27 23:39:00,33.4,4.6,30.45,WSW,247,0.0,2.0,29,0.00,,,0.00,WeatherTracker,2013-02-28 06:39:00,
2013-02-27 23:44:00,33.4,3.8,30.45,WSW,243,0.0,2.0,28,0.00,,,0.00,WeatherTracker,2013-02-28 06:44:00,
2013-02-27 23:50:00,33.6,3.2,30.45,WSW,243,0.0,2.0,27,0.00,,,0.00,WeatherTracker,2013-02-28 06:50:00,
2013-02-27 23:55:00,32.9,3.4,30.45,WSW,243,0.0,1.0,28,0.00,,,0.00,WeatherTracker,2013-02-28 06:55:00,